Nellis AFB, NV

10:21 PM PST on December 09, 2019 (GMT -0800)
Nellis Air Force Base

Weather History for KLSV - October, 2019

Change the Weather History Date:

Sunday, October 13, 2019

  Actual Average Record
Temperature  
Mean Temperature 62 °F -  
Max Temperature 79 °F 83 °F 95 °F (1996)
Min Temperature 44 °F 54 °F 44 °F (2019)
Degree Days  
Heating Degree Days 4    
Growing Degree Days 12 (Base 50)    
Moisture  
Dew Point 4 °F    
Average Humidity 11    
Maximum Humidity 18    
Minimum Humidity 6    
Precipitation  
Precipitation 0.00 in - - ()
Sea Level Pressure  
Sea Level Pressure 29.86 in    
Wind  
Wind Speed 2 mph (NNE)    
Max Wind Speed 8 mph    
Max Gust Speed -    
Visibility 10 miles    
Events      
Averages and records for this station are not official NWS values.
T = Trace of Precipitation, MM = Missing Value Source: NWS Daily Summary

Daily Weather History Graph

Daily Weather History Graph

Search for Another Location

Airport or City:

Astronomy

Oct. 13, 2019 Rise Set
Actual Time 6:45 AM PDT 6:06 PM PDT
Civil Twilight 6:19 AM PDT 6:32 PM PDT
Nautical Twilight 5:49 AM PDT 7:02 PM PDT
Astronomical Twilight 5:19 AM PDT 7:32 PM PDT
Moon 6:29 PM PDT (10/13) 6:25 AM PDT (10/13)
Length of Visible Light 12h 13m
Length of Day
11h 21m
Full, 100% of the Moon is Illuminated
Oct 13
Full
Oct 13
Full
Oct 21
Last Quarter
Oct 27
New
Nov 4
First Quarter

Hourly Weather History & Observations

Time (PDT) Temp. Windchill Dew Point Humidity Pressure Visibility Wind Dir Wind Speed Gust Speed Precip Events Conditions
12:58 AM 46.9 °F - -4.9 °F 11% 29.89 in 10.0 mi Calm Calm - N/A   Clear
1:58 AM 46.0 °F - -5.6 °F 11% 29.88 in 10.0 mi Calm Calm - N/A   Clear
2:58 AM 47.3 °F - -4.5 °F 11% 29.88 in 10.0 mi Calm Calm - N/A   Clear
3:58 AM 45.0 °F - -4.7 °F 12% 29.88 in 10.0 mi Calm Calm - N/A   Clear
4:58 AM 47.3 °F - -2.7 °F 12% 29.89 in 10.0 mi WNW 3.5 mph - N/A   Clear
5:52 AM 44.2 °F 42.7 °F -5.3 °F 12% 29.91 in 10.0 mi NNE 3.5 mph - N/A   Clear
6:58 AM 45.1 °F - -2.9 °F 13% 29.91 in 10.0 mi Calm Calm - N/A   Clear
7:01 AM 45.1 °F - -2.9 °F 13% 29.91 in 10.0 mi Calm Calm - N/A   Clear
7:58 AM 45.3 °F - -4.4 °F 12% 29.94 in 10.0 mi Calm Calm - N/A   Clear
8:58 AM 51.8 °F - -1.1 °F 11% 29.94 in 10.0 mi Calm Calm - N/A   Clear
9:58 AM 61.2 °F - -0.8 °F 8% 29.94 in 10.0 mi Calm Calm - N/A   Clear
10:58 AM 65.1 °F - -0.6 °F 7% 29.93 in 10.0 mi Calm Calm - N/A   Clear
11:58 AM 71.4 °F - 0.7 °F 6% 29.90 in 10.0 mi South 3.5 mph - N/A   Clear
12:58 PM 75.6 °F - 3.7 °F 6% 29.87 in 10.0 mi NNE 6.9 mph - N/A   Clear
1:58 PM 77.2 °F - 4.8 °F 6% 29.83 in 10.0 mi East 4.6 mph - N/A   Clear
2:58 PM 79.0 °F - 6.3 °F 6% 29.81 in 10.0 mi NNE 6.9 mph - N/A   Clear
3:58 PM 79.7 °F - 10.2 °F 7% 29.80 in 10.0 mi East 3.5 mph - N/A   Clear
4:58 PM 79.9 °F - 13.3 °F 8% 29.78 in 10.0 mi East 3.5 mph - N/A   Clear
6:58 PM 72.0 °F - 14.5 °F 11% 29.79 in 10.0 mi North 8.1 mph - N/A   Clear
7:58 PM 69.4 °F - 16.3 °F 13% 29.79 in 10.0 mi North 4.6 mph - N/A   Clear
8:58 PM 65.7 °F - 16.7 °F 15% 29.80 in 10.0 mi North 4.6 mph - N/A   Clear
9:58 PM 63.0 °F - 17.4 °F 17% 29.80 in 10.0 mi North 5.8 mph - N/A   Clear
10:58 PM 63.3 °F - 17.8 °F 17% 29.81 in 10.0 mi Calm Calm - N/A   Clear
11:58 PM 60.3 °F - 16.5 °F 18% 29.80 in 10.0 mi North 5.8 mph - N/A   Clear